contact:dominique.lefevre@mio.osupytheas.fr, maurice.libes@osupytheas.fr, didier.mallarino@osupytheas.fr
Project:EMSO http://www.emso-fr.org/EMSO-France
Depth: 2436.0 m
Title:EMSO Ligure Ouest : Data MII capteur MICROCAT
DateTime_Computer,Latitude,Longitude,Temperature,Conductivity,Pressure,DateTime_Instrument
DateTime_Computer,Latitude,Longitude,degC,S m-1,dbar,DateTime_Instrument
2022-09-13T00:02:32Z,42.805,6.029,13.3059,4.60101,2470.437,2022-9-13T02:04:24Z
2022-09-13T00:05:35Z,42.805,6.029,13.3070,4.60087,2470.437,2022-9-13T02:07:28Z
2022-09-13T00:08:39Z,42.805,6.029,13.3065,4.60093,2470.39,2022-9-13T02:10:31Z
2022-09-13T00:11:42Z,42.805,6.029,13.3085,4.60092,2470.39,2022-9-13T02:13:34Z
2022-09-13T00:14:45Z,42.805,6.029,13.3086,4.60088,2470.427,2022-9-13T02:16:37Z
2022-09-13T00:17:48Z,42.805,6.029,13.3084,4.60089,2470.39,2022-9-13T02:19:40Z
2022-09-13T00:20:51Z,42.805,6.029,13.3073,4.60092,2470.404,2022-9-13T02:22:43Z
2022-09-13T00:23:54Z,42.805,6.029,13.3080,4.60082,2470.39,2022-9-13T02:25:46Z
2022-09-13T00:26:57Z,42.805,6.029,13.3073,4.60084,2470.413,2022-9-13T02:28:49Z
2022-09-13T00:30:00Z,42.805,6.029,13.3061,4.60124,2470.413,2022-9-13T02:31:53Z
2022-09-13T00:33:04Z,42.805,6.029,13.3067,4.60094,2470.343,2022-9-13T02:34:56Z
2022-09-13T00:36:07Z,42.805,6.029,13.3069,4.60087,2470.38,2022-9-13T02:37:59Z
2022-09-13T00:39:10Z,42.805,6.029,13.3078,4.60090,2470.39,2022-9-13T02:41:02Z
2022-09-13T00:42:13Z,42.805,6.029,13.3073,4.60089,2470.39,2022-9-13T02:44:05Z
2022-09-13T00:45:16Z,42.805,6.029,13.3073,4.60097,2470.39,2022-9-13T02:47:08Z
2022-09-13T00:48:19Z,42.805,6.029,13.3054,4.60097,2470.404,2022-9-13T02:50:11Z
2022-09-13T00:51:22Z,42.805,6.029,13.3054,4.60088,2470.38,2022-9-13T02:53:14Z
2022-09-13T00:54:25Z,42.805,6.029,13.3054,4.60088,2470.38,2022-9-13T02:56:18Z
2022-09-13T00:57:29Z,42.805,6.029,13.3058,4.60088,2470.413,2022-9-13T02:59:21Z
2022-09-13T01:00:32Z,42.805,6.029,13.3059,4.60112,2470.366,2022-9-13T03:02:24Z
2022-09-13T01:03:35Z,42.805,6.029,13.3056,4.60099,2470.38,2022-9-13T03:05:27Z
2022-09-13T01:06:38Z,42.805,6.029,13.3061,4.60097,2470.366,2022-9-13T03:08:30Z
2022-09-13T01:09:41Z,42.805,6.029,13.3054,4.60095,2470.413,2022-9-13T03:11:33Z
2022-09-13T01:12:44Z,42.805,6.029,13.3056,4.60114,2470.38,2022-9-13T03:14:36Z
2022-09-13T01:15:47Z,42.805,6.029,13.3079,4.60109,2470.39,2022-9-13T03:17:39Z
2022-09-13T01:18:50Z,42.805,6.029,13.3053,4.60099,2470.39,2022-9-13T03:20:43Z
2022-09-13T01:21:54Z,42.805,6.029,13.3058,4.60084,2470.366,2022-9-13T03:23:46Z
2022-09-13T01:24:57Z,42.805,6.029,13.3054,4.60125,2470.366,2022-9-13T03:26:49Z
2022-09-13T01:28:00Z,42.805,6.029,13.3063,4.60081,2470.38,2022-9-13T03:29:52Z
2022-09-13T01:31:03Z,42.805,6.029,13.3077,4.60080,2470.343,2022-9-13T03:32:55Z
2022-09-13T01:34:06Z,42.805,6.029,13.3058,4.60087,2470.357,2022-9-13T03:35:58Z
2022-09-13T01:37:09Z,42.805,6.029,13.3056,4.60081,2470.38,2022-9-13T03:39:01Z
2022-09-13T01:40:12Z,42.805,6.029,13.3067,4.60085,2470.357,2022-9-13T03:42:04Z
2022-09-13T01:43:15Z,42.805,6.029,13.3054,4.60094,2470.32,2022-9-13T03:45:07Z
2022-09-13T01:46:18Z,42.805,6.029,13.3056,4.60097,2470.334,2022-9-13T03:48:11Z
2022-09-13T01:49:22Z,42.805,6.029,13.3070,4.60085,2470.366,2022-9-13T03:51:14Z
2022-09-13T01:52:25Z,42.805,6.029,13.3084,4.60091,2470.357,2022-9-13T03:54:17Z
2022-09-13T01:55:28Z,42.805,6.029,13.3064,4.60098,2470.38,2022-9-13T03:57:20Z
2022-09-13T01:58:31Z,42.805,6.029,13.3067,4.60080,2470.366,2022-9-13T04:00:23Z
2022-09-13T02:01:34Z,42.805,6.029,13.3063,4.60084,2470.334,2022-9-13T04:03:26Z
2022-09-13T02:04:37Z,42.805,6.029,13.3086,4.60089,2470.413,2022-9-13T04:06:29Z
2022-09-13T02:07:40Z,42.805,6.029,13.3082,4.60097,2470.297,2022-9-13T04:09:32Z
2022-09-13T02:10:43Z,42.805,6.029,13.3065,4.60086,2470.357,2022-9-13T04:12:36Z
2022-09-13T02:13:47Z,42.805,6.029,13.3072,4.60087,2470.334,2022-9-13T04:15:39Z
2022-09-13T02:16:50Z,42.805,6.029,13.3063,4.60137,2470.366,2022-9-13T04:18:42Z
2022-09-13T02:19:53Z,42.805,6.029,13.3081,4.60101,2470.334,2022-9-13T04:21:45Z
2022-09-13T02:22:56Z,42.805,6.029,13.3058,4.60094,2470.38,2022-9-13T04:24:48Z
2022-09-13T02:25:59Z,42.805,6.029,13.3056,4.60110,2470.343,2022-9-13T04:27:51Z
2022-09-13T02:29:02Z,42.805,6.029,13.3051,4.60094,2470.32,2022-9-13T04:30:54Z
2022-09-13T02:32:05Z,42.805,6.029,13.3109,4.60101,2470.38,2022-9-13T04:33:57Z
2022-09-13T02:35:08Z,42.805,6.029,13.3056,4.60088,2470.32,2022-9-13T04:37:01Z
2022-09-13T02:38:12Z,42.805,6.029,13.3065,4.60087,2470.31,2022-9-13T04:40:04Z
2022-09-13T02:41:15Z,42.805,6.029,13.3060,4.60079,2470.343,2022-9-13T04:43:07Z
2022-09-13T02:44:18Z,42.805,6.029,13.3056,4.60086,2470.32,2022-9-13T04:46:10Z
2022-09-13T02:47:21Z,42.805,6.029,13.3054,4.60083,2470.38,2022-9-13T04:49:13Z
2022-09-13T02:50:24Z,42.805,6.029,13.3063,4.60092,2470.32,2022-9-13T04:52:16Z
2022-09-13T02:53:27Z,42.805,6.029,13.3065,4.60078,2470.334,2022-9-13T04:55:19Z
2022-09-13T02:56:30Z,42.805,6.029,13.3075,4.60081,2470.32,2022-9-13T04:58:22Z
2022-09-13T02:59:33Z,42.805,6.029,13.3069,4.60088,2470.334,2022-9-13T05:01:26Z
2022-09-13T03:02:36Z,42.805,6.029,13.3063,4.60085,2470.343,2022-9-13T05:04:29Z
2022-09-13T03:05:40Z,42.805,6.029,13.3076,4.60089,2470.343,2022-9-13T05:07:32Z
2022-09-13T03:08:43Z,42.805,6.029,13.3058,4.60090,2470.357,2022-9-13T05:10:35Z
2022-09-13T03:11:46Z,42.805,6.029,13.3069,4.60092,2470.366,2022-9-13T05:13:38Z
2022-09-13T03:14:49Z,42.805,6.029,13.3050,4.60087,2470.31,2022-9-13T05:16:41Z
2022-09-13T03:17:52Z,42.805,6.029,13.3062,4.60079,2470.32,2022-9-13T05:19:44Z
2022-09-13T03:20:55Z,42.805,6.029,13.3083,4.60088,2470.32,2022-9-13T05:22:47Z
2022-09-13T03:23:58Z,42.805,6.029,13.3065,4.60082,2470.32,2022-9-13T05:25:50Z
2022-09-13T03:27:01Z,42.805,6.029,13.3068,4.60090,2470.357,2022-9-13T05:28:54Z
2022-09-13T03:30:05Z,42.805,6.029,13.3049,4.60097,2470.38,2022-9-13T05:31:57Z
2022-09-13T03:33:08Z,42.805,6.029,13.3062,4.60098,2470.32,2022-9-13T05:35:00Z
2022-09-13T03:36:11Z,42.805,6.029,13.3073,4.60093,2470.32,2022-9-13T05:38:03Z
2022-09-13T03:39:14Z,42.805,6.029,13.3067,4.60092,2470.32,2022-9-13T05:41:06Z
2022-09-13T03:42:17Z,42.805,6.029,13.3057,4.60091,2470.357,2022-9-13T05:44:09Z
2022-09-13T03:45:20Z,42.805,6.029,13.3066,4.60085,2470.32,2022-9-13T05:47:12Z
2022-09-13T03:48:23Z,42.805,6.029,13.3058,4.60081,2470.343,2022-9-13T05:50:15Z
2022-09-13T03:51:26Z,42.805,6.029,13.3052,4.60077,2470.343,2022-9-13T05:53:19Z
2022-09-13T03:54:30Z,42.805,6.029,13.3056,4.60092,2470.357,2022-9-13T05:56:22Z
2022-09-13T03:57:33Z,42.805,6.029,13.3051,4.60077,2470.32,2022-9-13T05:59:25Z
2022-09-13T04:00:36Z,42.805,6.029,13.3048,4.60077,2470.357,2022-9-13T06:02:28Z
2022-09-13T04:03:39Z,42.805,6.029,13.3058,4.60088,2470.31,2022-9-13T06:05:31Z
2022-09-13T04:06:42Z,42.805,6.029,13.3073,4.60083,2470.32,2022-9-13T06:08:34Z
2022-09-13T04:09:45Z,42.805,6.029,13.3077,4.60088,2470.343,2022-9-13T06:11:37Z
2022-09-13T04:12:48Z,42.805,6.029,13.3069,4.60099,2470.343,2022-9-13T06:14:40Z
2022-09-13T04:15:51Z,42.805,6.029,13.3058,4.60079,2470.334,2022-9-13T06:17:44Z
2022-09-13T04:18:55Z,42.805,6.029,13.3061,4.60078,2470.357,2022-9-13T06:20:47Z
2022-09-13T04:21:58Z,42.805,6.029,13.3058,4.60090,2470.32,2022-9-13T06:23:50Z
2022-09-13T04:25:01Z,42.805,6.029,13.3076,4.60086,2470.357,2022-9-13T06:26:53Z
2022-09-13T04:28:04Z,42.805,6.029,13.3061,4.60082,2470.32,2022-9-13T06:29:56Z
2022-09-13T04:31:07Z,42.805,6.029,13.3055,4.60085,2470.33,2022-9-13T06:32:59Z
2022-09-13T04:34:10Z,42.805,6.029,13.3049,4.60085,2470.38,2022-9-13T06:36:02Z
2022-09-13T04:37:13Z,42.805,6.029,13.3052,4.60086,2470.343,2022-9-13T06:39:05Z
2022-09-13T04:40:16Z,42.805,6.029,13.3048,4.60090,2470.343,2022-9-13T06:42:09Z
2022-09-13T04:43:20Z,42.805,6.029,13.3058,4.60093,2470.357,2022-9-13T06:45:12Z
2022-09-13T04:46:23Z,42.805,6.029,13.3067,4.60095,2470.38,2022-9-13T06:48:15Z
2022-09-13T04:49:26Z,42.805,6.029,13.3091,4.60079,2470.357,2022-9-13T06:51:18Z
2022-09-13T04:52:29Z,42.805,6.029,13.3076,4.60085,2470.343,2022-9-13T06:54:21Z
2022-09-13T04:55:32Z,42.805,6.029,13.3073,4.60083,2470.366,2022-9-13T06:57:24Z
2022-09-13T04:58:35Z,42.805,6.029,13.3044,4.60082,2470.38,2022-9-13T07:00:27Z
2022-09-13T05:01:38Z,42.805,6.029,13.3074,4.60097,2470.357,2022-9-13T07:03:30Z
2022-09-13T05:04:41Z,42.805,6.029,13.3055,4.60081,2470.38,2022-9-13T07:06:34Z
2022-09-13T05:07:44Z,42.805,6.029,13.3058,4.60083,2470.366,2022-9-13T07:09:37Z
2022-09-13T05:10:48Z,42.805,6.029,13.3063,4.60087,2470.38,2022-9-13T07:12:40Z
2022-09-13T05:13:51Z,42.805,6.029,13.3058,4.60099,2470.366,2022-9-13T07:15:43Z
2022-09-13T05:16:54Z,42.805,6.029,13.3063,4.60095,2470.38,2022-9-13T07:18:46Z
2022-09-13T05:19:57Z,42.805,6.029,13.3063,4.60092,2470.404,2022-9-13T07:21:49Z
2022-09-13T05:23:00Z,42.805,6.029,13.3087,4.60081,2470.38,2022-9-13T07:24:52Z
2022-09-13T05:26:03Z,42.805,6.029,13.3060,4.60087,2470.39,2022-9-13T07:27:55Z
2022-09-13T05:29:06Z,42.805,6.029,13.3051,4.60097,2470.404,2022-9-13T07:30:58Z
2022-09-13T05:32:09Z,42.805,6.029,13.3054,4.60097,2470.366,2022-9-13T07:34:02Z
2022-09-13T05:35:13Z,42.805,6.029,13.3064,4.60079,2470.404,2022-9-13T07:37:05Z
2022-09-13T05:38:16Z,42.805,6.029,13.3052,4.60076,2470.404,2022-9-13T07:40:08Z
2022-09-13T05:41:19Z,42.805,6.029,13.3046,4.60084,2470.39,2022-9-13T07:43:11Z
2022-09-13T05:44:22Z,42.805,6.029,13.3058,4.60074,2470.427,2022-9-13T07:46:14Z
2022-09-13T05:47:25Z,42.805,6.029,13.3053,4.60074,2470.404,2022-9-13T07:49:17Z
2022-09-13T05:50:28Z,42.805,6.029,13.3048,4.60089,2470.404,2022-9-13T07:52:20Z
2022-09-13T05:53:31Z,42.805,6.029,13.3049,4.60069,2470.39,2022-9-13T07:55:23Z
2022-09-13T05:56:34Z,42.805,6.029,13.3066,4.60096,2470.413,2022-9-13T07:58:27Z
2022-09-13T05:59:38Z,42.805,6.029,13.3060,4.60086,2470.427,2022-9-13T08:01:30Z
2022-09-13T06:02:41Z,42.805,6.029,13.3051,4.60092,2470.427,2022-9-13T08:04:33Z
2022-09-13T06:05:44Z,42.805,6.029,13.3043,4.60080,2470.446,2022-9-13T08:07:36Z
2022-09-13T06:08:47Z,42.805,6.029,13.3047,4.60093,2470.437,2022-9-13T08:10:39Z
2022-09-13T06:11:50Z,42.805,6.029,13.3046,4.60093,2470.45,2022-9-13T08:13:42Z
2022-09-13T06:14:53Z,42.805,6.029,13.3049,4.60091,2470.413,2022-9-13T08:16:45Z
2022-09-13T06:17:56Z,42.805,6.029,13.3050,4.60081,2470.437,2022-9-13T08:19:48Z
2022-09-13T06:20:59Z,42.805,6.029,13.3056,4.60078,2470.46,2022-9-13T08:22:52Z
2022-09-13T06:24:03Z,42.805,6.029,13.3054,4.60079,2470.474,2022-9-13T08:25:55Z
2022-09-13T06:27:06Z,42.805,6.029,13.3055,4.60077,2470.474,2022-9-13T08:28:58Z
2022-09-13T06:30:09Z,42.805,6.029,13.3056,4.60079,2470.46,2022-9-13T08:32:01Z
2022-09-13T06:33:12Z,42.805,6.029,13.3052,4.60080,2470.45,2022-9-13T08:35:04Z
2022-09-13T06:36:15Z,42.805,6.029,13.3056,4.60087,2470.46,2022-9-13T08:38:07Z
2022-09-13T06:39:18Z,42.805,6.029,13.3057,4.60084,2470.46,2022-9-13T08:41:10Z
2022-09-13T06:42:21Z,42.805,6.029,13.3056,4.60093,2470.483,2022-9-13T08:44:13Z
2022-09-13T06:45:24Z,42.805,6.029,13.3070,4.60086,2470.46,2022-9-13T08:47:17Z
2022-09-13T06:48:27Z,42.805,6.029,13.3059,4.60087,2470.497,2022-9-13T08:50:20Z
2022-09-13T06:51:31Z,42.805,6.029,13.3054,4.60086,2470.497,2022-9-13T08:53:23Z
2022-09-13T06:54:34Z,42.805,6.029,13.3056,4.60084,2470.474,2022-9-13T08:56:26Z
2022-09-13T06:57:37Z,42.805,6.029,13.3056,4.60078,2470.474,2022-9-13T08:59:29Z
2022-09-13T07:00:40Z,42.805,6.029,13.3069,4.60094,2470.483,2022-9-13T09:02:32Z
2022-09-13T07:03:43Z,42.805,6.029,13.3048,4.60086,2470.483,2022-9-13T09:05:35Z
2022-09-13T07:06:46Z,42.805,6.029,13.3052,4.60083,2470.483,2022-9-13T09:08:38Z
2022-09-13T07:09:49Z,42.805,6.029,13.3056,4.60069,2470.52,2022-9-13T09:11:42Z
2022-09-13T07:12:52Z,42.805,6.029,13.3047,4.60091,2470.46,2022-9-13T09:14:45Z
2022-09-13T07:15:56Z,42.805,6.029,13.3057,4.60084,2470.483,2022-9-13T09:17:48Z
2022-09-13T07:18:59Z,42.805,6.029,13.3051,4.60070,2470.474,2022-9-13T09:20:51Z
2022-09-13T07:22:02Z,42.805,6.029,13.3049,4.60086,2470.497,2022-9-13T09:23:54Z
2022-09-13T07:25:05Z,42.805,6.029,13.3052,4.60080,2470.507,2022-9-13T09:26:57Z
2022-09-13T07:28:08Z,42.805,6.029,13.3055,4.60081,2470.483,2022-9-13T09:30:00Z
2022-09-13T07:31:11Z,42.805,6.029,13.3056,4.60084,2470.52,2022-9-13T09:33:03Z
2022-09-13T07:34:14Z,42.805,6.029,13.3047,4.60097,2470.53,2022-9-13T09:36:06Z
2022-09-13T07:37:17Z,42.805,6.029,13.3049,4.60097,2470.544,2022-9-13T09:39:10Z
2022-09-13T07:40:21Z,42.805,6.029,13.3051,4.60085,2470.52,2022-9-13T09:42:13Z
2022-09-13T07:43:24Z,42.805,6.029,13.3062,4.60084,2470.53,2022-9-13T09:45:16Z
2022-09-13T07:46:27Z,42.805,6.029,13.3053,4.60069,2470.52,2022-9-13T09:48:19Z
2022-09-13T07:49:30Z,42.805,6.029,13.3053,4.60076,2470.53,2022-9-13T09:51:22Z
2022-09-13T07:52:33Z,42.805,6.029,13.3045,4.60084,2470.53,2022-9-13T09:54:25Z
2022-09-13T07:55:36Z,42.805,6.029,13.3040,4.60072,2470.507,2022-9-13T09:57:28Z
2022-09-13T07:58:39Z,42.805,6.029,13.3045,4.60072,2470.544,2022-9-13T10:00:31Z
2022-09-13T08:01:42Z,42.805,6.029,13.3056,4.60074,2470.553,2022-9-13T10:03:35Z
2022-09-13T08:04:46Z,42.805,6.029,13.3063,4.60082,2470.553,2022-9-13T10:06:38Z
2022-09-13T08:07:49Z,42.805,6.029,13.3047,4.60081,2470.53,2022-9-13T10:09:41Z
2022-09-13T08:10:52Z,42.805,6.029,13.3054,4.60080,2470.553,2022-9-13T10:12:44Z
2022-09-13T08:13:55Z,42.805,6.029,13.3046,4.60084,2470.544,2022-9-13T10:15:47Z
2022-09-13T08:16:58Z,42.805,6.029,13.3073,4.60082,2470.567,2022-9-13T10:18:50Z
2022-09-13T08:20:01Z,42.805,6.029,13.3058,4.60088,2470.567,2022-9-13T10:21:53Z
2022-09-13T08:23:04Z,42.805,6.029,13.3051,4.60091,2470.553,2022-9-13T10:24:56Z
2022-09-13T08:26:07Z,42.805,6.029,13.3046,4.60076,2470.553,2022-9-13T10:28:00Z
2022-09-13T08:29:11Z,42.805,6.029,13.3046,4.60077,2470.577,2022-9-13T10:31:03Z
2022-09-13T08:32:14Z,42.805,6.029,13.3051,4.60078,2470.507,2022-9-13T10:34:06Z
2022-09-13T08:35:17Z,42.805,6.029,13.3043,4.60093,2470.553,2022-9-13T10:37:09Z
2022-09-13T08:38:20Z,42.805,6.029,13.3050,4.60068,2470.553,2022-9-13T10:40:12Z
2022-09-13T08:41:23Z,42.805,6.029,13.3053,4.60072,2470.544,2022-9-13T10:43:15Z
2022-09-13T08:44:26Z,42.805,6.029,13.3048,4.60087,2470.516,2022-9-13T10:46:18Z
2022-09-13T08:47:29Z,42.805,6.029,13.3057,4.60074,2470.53,2022-9-13T10:49:21Z
2022-09-13T08:50:32Z,42.805,6.029,13.3056,4.60078,2470.544,2022-9-13T10:52:25Z
2022-09-13T08:53:36Z,42.805,6.029,13.3055,4.60079,2470.544,2022-9-13T10:55:28Z
2022-09-13T08:56:39Z,42.805,6.029,13.3044,4.60086,2470.544,2022-9-13T10:58:31Z
2022-09-13T08:59:42Z,42.805,6.029,13.3065,4.60077,2470.53,2022-9-13T11:01:34Z
2022-09-13T09:02:45Z,42.805,6.029,13.3078,4.60081,2470.544,2022-9-13T11:04:37Z
2022-09-13T09:05:48Z,42.805,6.029,13.3054,4.60072,2470.52,2022-9-13T11:07:40Z
2022-09-13T09:08:51Z,42.805,6.029,13.3039,4.60080,2470.53,2022-9-13T11:10:43Z
2022-09-13T09:11:54Z,42.805,6.029,13.3048,4.60078,2470.567,2022-9-13T11:13:46Z
2022-09-13T09:14:57Z,42.805,6.029,13.3050,4.60070,2470.577,2022-9-13T11:16:50Z
2022-09-13T09:18:01Z,42.805,6.029,13.3040,4.60079,2470.577,2022-9-13T11:19:53Z
2022-09-13T09:21:04Z,42.805,6.029,13.3054,4.60072,2470.553,2022-9-13T11:22:56Z
2022-09-13T09:24:07Z,42.805,6.029,13.3046,4.60087,2470.577,2022-9-13T11:25:59Z
2022-09-13T09:27:10Z,42.805,6.029,13.3051,4.60078,2470.53,2022-9-13T11:29:02Z
2022-09-13T09:30:13Z,42.805,6.029,13.3054,4.60091,2470.544,2022-9-13T11:32:05Z
2022-09-13T09:33:16Z,42.805,6.029,13.3057,4.60068,2470.53,2022-9-13T11:35:08Z
2022-09-13T09:36:19Z,42.805,6.029,13.3057,4.60067,2470.577,2022-9-13T11:38:11Z
2022-09-13T09:39:22Z,42.805,6.029,13.3043,4.60084,2470.553,2022-9-13T11:41:15Z
2022-09-13T09:42:26Z,42.805,6.029,13.3045,4.60080,2470.53,2022-9-13T11:44:18Z
2022-09-13T09:45:29Z,42.805,6.029,13.3048,4.60086,2470.53,2022-9-13T11:47:21Z
2022-09-13T09:48:32Z,42.805,6.029,13.3056,4.60080,2470.53,2022-9-13T11:50:24Z
2022-09-13T09:51:35Z,42.805,6.029,13.3053,4.60076,2470.507,2022-9-13T11:53:27Z
2022-09-13T09:54:38Z,42.805,6.029,13.3070,4.60087,2470.53,2022-9-13T11:56:30Z
2022-09-13T09:57:41Z,42.805,6.029,13.3056,4.60084,2470.53,2022-9-13T11:59:33Z
2022-09-13T10:00:44Z,42.805,6.029,13.3059,4.60093,2470.483,2022-9-13T12:02:37Z
2022-09-13T10:03:47Z,42.805,6.029,13.3051,4.60081,2470.483,2022-9-13T12:05:40Z
2022-09-13T10:06:51Z,42.805,6.029,13.3047,4.60084,2470.493,2022-9-13T12:08:43Z
2022-09-13T10:09:54Z,42.805,6.029,13.3045,4.60088,2470.507,2022-9-13T12:11:46Z
2022-09-13T10:12:57Z,42.805,6.029,13.3055,4.60088,2470.52,2022-9-13T12:14:49Z
2022-09-13T10:16:00Z,42.805,6.029,13.3056,4.60073,2470.483,2022-9-13T12:17:52Z
2022-09-13T10:19:03Z,42.805,6.029,13.3041,4.60074,2470.52,2022-9-13T12:20:55Z
2022-09-13T10:22:06Z,42.805,6.029,13.3056,4.60067,2470.483,2022-9-13T12:23:58Z
2022-09-13T10:25:09Z,42.805,6.029,13.3048,4.60074,2470.483,2022-9-13T12:27:02Z
2022-09-13T10:28:12Z,42.805,6.029,13.3042,4.60072,2470.474,2022-9-13T12:30:05Z
2022-09-13T10:31:16Z,42.805,6.029,13.3043,4.60078,2470.483,2022-9-13T12:33:08Z
2022-09-13T10:34:19Z,42.805,6.029,13.3040,4.60077,2470.52,2022-9-13T12:36:11Z
2022-09-13T10:37:22Z,42.805,6.029,13.3047,4.60076,2470.52,2022-9-13T12:39:14Z
2022-09-13T10:40:25Z,42.805,6.029,13.3039,4.60073,2470.497,2022-9-13T12:42:17Z
2022-09-13T10:43:28Z,42.805,6.029,13.3039,4.60074,2470.497,2022-9-13T12:45:20Z
2022-09-13T10:46:31Z,42.805,6.029,13.3035,4.60074,2470.46,2022-9-13T12:48:23Z
2022-09-13T10:49:34Z,42.805,6.029,13.3038,4.60071,2470.497,2022-9-13T12:51:27Z
2022-09-13T10:52:37Z,42.805,6.029,13.3037,4.60077,2470.46,2022-9-13T12:54:30Z
2022-09-13T10:55:41Z,42.805,6.029,13.3040,4.60087,2470.437,2022-9-13T12:57:33Z
2022-09-13T10:58:44Z,42.805,6.029,13.3047,4.60090,2470.474,2022-9-13T13:00:36Z
2022-09-13T11:01:47Z,42.805,6.029,13.3046,4.60079,2470.474,2022-9-13T13:03:39Z
2022-09-13T11:04:50Z,42.805,6.029,13.3043,4.60081,2470.474,2022-9-13T13:06:42Z
2022-09-13T11:07:53Z,42.805,6.029,13.3041,4.60076,2470.497,2022-9-13T13:09:45Z
2022-09-13T11:10:56Z,42.805,6.029,13.3044,4.60081,2470.413,2022-9-13T13:12:48Z
2022-09-13T11:13:59Z,42.805,6.029,13.3041,4.60078,2470.45,2022-9-13T13:15:52Z
2022-09-13T11:17:02Z,42.805,6.029,13.3037,4.60079,2470.474,2022-9-13T13:18:55Z
2022-09-13T11:20:06Z,42.805,6.029,13.3043,4.60073,2470.46,2022-9-13T13:21:58Z
2022-09-13T11:23:09Z,42.805,6.029,13.3034,4.60079,2470.45,2022-9-13T13:25:01Z
2022-09-13T11:26:12Z,42.805,6.029,13.3041,4.60079,2470.46,2022-9-13T13:28:04Z
2022-09-13T11:29:15Z,42.805,6.029,13.3042,4.60077,2470.45,2022-9-13T13:31:07Z
2022-09-13T11:32:18Z,42.805,6.029,13.3037,4.60072,2470.437,2022-9-13T13:34:10Z
2022-09-13T11:35:21Z,42.805,6.029,13.3051,4.60084,2470.437,2022-9-13T13:37:13Z
2022-09-13T11:38:24Z,42.805,6.029,13.3048,4.60072,2470.437,2022-9-13T13:40:17Z
2022-09-13T11:41:27Z,42.805,6.029,13.3041,4.60076,2470.437,2022-9-13T13:43:20Z
2022-09-13T11:44:31Z,42.805,6.029,13.3042,4.60093,2470.437,2022-9-13T13:46:23Z
2022-09-13T11:47:34Z,42.805,6.029,13.3049,4.60084,2470.427,2022-9-13T13:49:26Z
2022-09-13T11:50:37Z,42.805,6.029,13.3049,4.60075,2470.46,2022-9-13T13:52:29Z
2022-09-13T11:53:40Z,42.805,6.029,13.3036,4.60084,2470.474,2022-9-13T13:55:32Z
2022-09-13T11:56:43Z,42.805,6.029,13.3043,4.60079,2470.45,2022-9-13T13:58:35Z
2022-09-13T11:59:46Z,42.805,6.029,13.3040,4.60069,2470.45,2022-9-13T14:01:38Z
2022-09-13T12:02:49Z,42.805,6.029,13.3041,4.60079,2470.427,2022-9-13T14:04:42Z
2022-09-13T12:05:52Z,42.805,6.029,13.3053,4.60122,2470.427,2022-9-13T14:07:45Z
2022-09-13T12:08:56Z,42.805,6.029,13.3058,4.60084,2470.427,2022-9-13T14:10:48Z
2022-09-13T12:11:59Z,42.805,6.029,13.3036,4.60079,2470.437,2022-9-13T14:13:51Z
2022-09-13T12:15:02Z,42.805,6.029,13.3045,4.60081,2470.45,2022-9-13T14:16:54Z
2022-09-13T12:18:05Z,42.805,6.029,13.3042,4.60080,2470.413,2022-9-13T14:19:57Z
2022-09-13T12:21:08Z,42.805,6.029,13.3038,4.60077,2470.413,2022-9-13T14:23:00Z
2022-09-13T12:24:11Z,42.805,6.029,13.3033,4.60077,2470.39,2022-9-13T14:26:03Z
2022-09-13T12:27:14Z,42.805,6.029,13.3036,4.60084,2470.404,2022-9-13T14:29:07Z
2022-09-13T12:30:17Z,42.805,6.029,13.3054,4.60101,2470.45,2022-9-13T14:32:10Z
2022-09-13T12:33:21Z,42.805,6.029,13.3054,4.60073,2470.38,2022-9-13T14:35:13Z
2022-09-13T12:36:24Z,42.805,6.029,13.3043,4.60084,2470.39,2022-9-13T14:38:16Z
2022-09-13T12:39:27Z,42.805,6.029,13.3065,4.60089,2470.39,2022-9-13T14:41:19Z
2022-09-13T12:42:30Z,42.805,6.029,13.3048,4.60087,2470.404,2022-9-13T14:44:22Z
2022-09-13T12:45:33Z,42.805,6.029,13.3019,4.60094,2470.39,2022-9-13T14:47:25Z
2022-09-13T12:48:36Z,42.805,6.029,13.3055,4.60106,2470.427,2022-9-13T14:50:28Z
2022-09-13T12:51:39Z,42.805,6.029,13.3021,4.60088,2470.404,2022-9-13T14:53:32Z
2022-09-13T12:54:42Z,42.805,6.029,13.3019,4.60077,2470.366,2022-9-13T14:56:35Z
2022-09-13T12:57:46Z,42.805,6.029,13.3019,4.60091,2470.366,2022-9-13T14:59:38Z
2022-09-13T13:00:49Z,42.805,6.029,13.3012,4.60077,2470.366,2022-9-13T15:02:41Z
2022-09-13T13:03:52Z,42.805,6.029,13.3019,4.60101,2470.366,2022-9-13T15:05:44Z
2022-09-13T13:06:55Z,42.805,6.029,13.3095,4.60097,2470.38,2022-9-13T15:08:47Z
2022-09-13T13:09:58Z,42.805,6.029,13.3051,4.60146,2470.366,2022-9-13T15:11:50Z
2022-09-13T13:13:01Z,42.805,6.029,13.3067,4.60087,2470.357,2022-9-13T15:14:53Z
2022-09-13T13:16:04Z,42.805,6.029,13.3011,4.60094,2470.357,2022-9-13T15:17:57Z
2022-09-13T13:19:07Z,42.805,6.029,13.3040,4.60108,2470.343,2022-9-13T15:21:00Z
2022-09-13T13:22:11Z,42.805,6.029,13.3054,4.60087,2470.366,2022-9-13T15:24:03Z
2022-09-13T13:25:14Z,42.805,6.029,13.3029,4.60094,2470.343,2022-9-13T15:27:06Z
2022-09-13T13:28:17Z,42.805,6.029,13.3008,4.60056,2470.38,2022-9-13T15:30:09Z
2022-09-13T13:31:20Z,42.805,6.029,13.3007,4.60052,2470.343,2022-9-13T15:33:12Z
2022-09-13T13:34:23Z,42.805,6.029,13.3010,4.60050,2470.366,2022-9-13T15:36:15Z
2022-09-13T13:37:26Z,42.805,6.029,13.3008,4.60051,2470.343,2022-9-13T15:39:18Z
2022-09-13T13:40:29Z,42.805,6.029,13.3003,4.60052,2470.366,2022-9-13T15:42:22Z
2022-09-13T13:43:32Z,42.805,6.029,13.3006,4.60049,2470.32,2022-9-13T15:45:25Z
2022-09-13T13:46:36Z,42.805,6.029,13.3005,4.60049,2470.343,2022-9-13T15:48:28Z
2022-09-13T13:49:39Z,42.805,6.029,13.3005,4.60049,2470.343,2022-9-13T15:51:31Z
2022-09-13T13:52:42Z,42.805,6.029,13.3006,4.60052,2470.343,2022-9-13T15:54:34Z
2022-09-13T13:55:45Z,42.805,6.029,13.3011,4.60052,2470.343,2022-9-13T15:57:37Z
2022-09-13T13:58:48Z,42.805,6.029,13.3006,4.60053,2470.334,2022-9-13T16:00:40Z
2022-09-13T14:01:51Z,42.805,6.029,13.3009,4.60052,2470.32,2022-9-13T16:03:43Z
2022-09-13T14:04:54Z,42.805,6.029,13.3009,4.60052,2470.32,2022-9-13T16:06:47Z
2022-09-13T14:07:57Z,42.805,6.029,13.3003,4.60052,2470.343,2022-9-13T16:09:50Z
2022-09-13T14:11:01Z,42.805,6.029,13.3007,4.60050,2470.32,2022-9-13T16:12:53Z
2022-09-13T14:14:04Z,42.805,6.029,13.3011,4.60052,2470.334,2022-9-13T16:15:56Z
2022-09-13T14:17:07Z,42.805,6.029,13.3006,4.60052,2470.32,2022-9-13T16:18:59Z
2022-09-13T14:20:10Z,42.805,6.029,13.3008,4.60054,2470.32,2022-9-13T16:22:02Z
2022-09-13T14:23:13Z,42.805,6.029,13.3006,4.60052,2470.287,2022-9-13T16:25:05Z
2022-09-13T14:26:16Z,42.805,6.029,13.3005,4.60051,2470.297,2022-9-13T16:28:08Z
2022-09-13T14:29:19Z,42.805,6.029,13.3006,4.60049,2470.297,2022-9-13T16:31:12Z
2022-09-13T14:32:22Z,42.805,6.029,13.3004,4.60050,2470.297,2022-9-13T16:34:15Z
2022-09-13T14:35:26Z,42.805,6.029,13.3009,4.60052,2470.297,2022-9-13T16:37:18Z
2022-09-13T14:38:29Z,42.805,6.029,13.3006,4.60057,2470.287,2022-9-13T16:40:21Z
2022-09-13T14:41:32Z,42.805,6.029,13.3009,4.60052,2470.297,2022-9-13T16:43:24Z
2022-09-13T14:44:35Z,42.805,6.029,13.3006,4.60055,2470.273,2022-9-13T16:46:27Z
2022-09-13T14:47:38Z,42.805,6.029,13.3005,4.60054,2470.273,2022-9-13T16:49:30Z
2022-09-13T14:50:41Z,42.805,6.029,13.3005,4.60053,2470.273,2022-9-13T16:52:33Z
2022-09-13T14:53:44Z,42.805,6.029,13.3011,4.60057,2470.287,2022-9-13T16:55:37Z
2022-09-13T14:56:48Z,42.805,6.029,13.3010,4.60059,2470.297,2022-9-13T16:58:40Z
2022-09-13T14:59:51Z,42.805,6.029,13.3012,4.60060,2470.273,2022-9-13T17:01:43Z
2022-09-13T15:02:54Z,42.805,6.029,13.3011,4.60053,2470.31,2022-9-13T17:04:46Z
2022-09-13T15:05:57Z,42.805,6.029,13.3004,4.60052,2470.273,2022-9-13T17:07:49Z
2022-09-13T15:09:00Z,42.805,6.029,13.3009,4.60052,2470.273,2022-9-13T17:10:52Z
2022-09-13T15:12:03Z,42.805,6.029,13.3006,4.60053,2470.297,2022-9-13T17:13:55Z
2022-09-13T15:15:06Z,42.805,6.029,13.3006,4.60052,2470.287,2022-9-13T17:16:58Z